Time,TemperatureF,DewpointF,PressureIn,WindDirection,WindDirectionDegrees,WindSpeedMPH,WindSpeedGustMPH,Humidity,HourlyPrecipIn,Conditions,Clouds,dailyrainin,SoftwareType,DateUTC
2013-04-11 00:30:00,28.1,25.3,30.00,WNW,295,8.0,8.0,89,0.00,,,0.00,Wunderground v.1.15,2013-04-11 05:30:00,
2013-04-11 00:40:00,28.0,25.4,30.00,WNW,299,7.0,7.0,90,0.00,,,0.00,Wunderground v.1.15,2013-04-11 05:40:00,
2013-04-11 00:50:00,28.0,25.2,30.00,WNW,297,6.0,6.0,89,0.00,,,0.00,Wunderground v.1.15,2013-04-11 05:50:00,
2013-04-11 01:00:00,28.2,24.8,30.00,WNW,297,7.0,7.0,87,0.00,,,0.00,Wunderground v.1.15,2013-04-11 06:00:00,
2013-04-11 01:10:00,28.3,24.9,29.99,WNW,299,8.0,8.0,87,0.00,,,0.00,Wunderground v.1.15,2013-04-11 06:10:00,
2013-04-11 01:20:00,28.3,24.6,29.99,WNW,297,8.0,8.0,86,0.00,,,0.00,Wunderground v.1.15,2013-04-11 06:20:00,
2013-04-11 01:30:00,28.3,24.9,29.99,WNW,290,8.0,8.0,87,0.00,,,0.00,Wunderground v.1.15,2013-04-11 06:30:00,
2013-04-11 01:40:00,28.3,24.9,29.99,WNW,299,8.0,8.0,87,0.00,,,0.00,Wunderground v.1.15,2013-04-11 06:40:00,
2013-04-11 01:50:00,28.2,24.8,29.98,NW,304,6.0,6.0,87,0.00,,,0.00,Wunderground v.1.15,2013-04-11 06:50:00,
2013-04-11 02:00:00,28.2,25.1,29.97,WNW,298,6.0,6.0,88,0.00,,,0.00,Wunderground v.1.15,2013-04-11 07:00:00,
2013-04-11 02:10:00,28.0,24.4,29.96,WNW,297,7.0,9.0,86,0.00,,,0.00,Wunderground v.1.15,2013-04-11 07:10:00,
2013-04-11 02:20:00,27.7,24.3,29.96,WNW,302,7.0,8.0,87,0.00,,,0.00,Wunderground v.1.15,2013-04-11 07:20:00,
2013-04-11 02:30:00,27.7,24.6,29.95,WNW,287,7.0,7.0,88,0.00,,,0.00,Wunderground v.1.15,2013-04-11 07:30:00,
2013-04-11 02:40:00,27.6,24.5,29.94,WNW,293,7.0,7.0,88,0.00,,,0.00,Wunderground v.1.15,2013-04-11 07:40:00,
2013-04-11 02:50:00,27.7,24.3,29.93,WNW,302,9.0,9.0,87,0.00,,,0.00,Wunderground v.1.15,2013-04-11 07:50:00,
2013-04-11 03:00:00,27.3,23.7,29.93,WNW,296,8.0,8.0,86,0.00,,,0.00,Wunderground v.1.15,2013-04-11 08:00:00,
2013-04-11 03:10:00,27.0,23.6,29.92,West,274,8.0,8.0,87,0.00,,,0.00,Wunderground v.1.15,2013-04-11 08:10:00,
2013-04-11 03:20:00,26.5,23.2,29.92,WNW,291,7.0,7.0,87,0.00,,,0.00,Wunderground v.1.15,2013-04-11 08:20:00,
2013-04-11 03:30:00,26.1,23.0,29.91,WNW,292,8.0,8.0,88,0.00,,,0.00,Wunderground v.1.15,2013-04-11 08:30:00,
2013-04-11 03:40:00,25.9,22.8,29.90,NW,311,7.0,7.0,88,0.00,,,0.00,Wunderground v.1.15,2013-04-11 08:40:00,
2013-04-11 03:50:00,25.7,22.6,29.90,NW,307,8.0,8.0,88,0.00,,,0.00,Wunderground v.1.15,2013-04-11 08:50:00,
2013-04-11 04:00:00,25.4,22.6,29.89,WNW,298,6.0,9.0,89,0.00,,,0.00,Wunderground v.1.15,2013-04-11 09:00:00,
2013-04-11 04:10:00,25.3,22.5,29.88,WNW,283,7.0,10.0,89,0.00,,,0.00,Wunderground v.1.15,2013-04-11 09:10:00,
2013-04-11 04:20:00,25.2,22.4,29.88,WNW,283,6.0,6.0,89,0.00,,,0.00,Wunderground v.1.15,2013-04-11 09:20:00,
2013-04-11 04:30:00,25.1,22.3,29.88,West,273,7.0,7.0,89,0.00,,,0.00,Wunderground v.1.15,2013-04-11 09:30:00,
2013-04-11 04:40:00,24.9,22.1,29.87,WNW,287,6.0,6.0,89,0.00,,,0.00,Wunderground v.1.15,2013-04-11 09:40:00,
2013-04-11 04:50:00,24.7,21.9,29.87,WNW,300,6.0,7.0,89,0.00,,,0.00,Wunderground v.1.15,2013-04-11 09:50:00,
2013-04-11 05:00:00,24.6,21.6,29.87,WNW,290,6.0,7.0,88,0.00,,,0.00,Wunderground v.1.15,2013-04-11 10:00:00,
2013-04-11 05:10:00,24.3,21.3,29.88,WNW,289,6.0,6.0,88,0.00,,,0.00,Wunderground v.1.15,2013-04-11 10:10:00,
2013-04-11 05:20:00,24.2,21.2,29.89,WNW,285,6.0,6.0,88,0.00,,,0.00,Wunderground v.1.15,2013-04-11 10:20:00,
2013-04-11 05:30:00,24.0,21.0,29.89,WNW,292,5.0,5.0,88,0.00,,,0.00,Wunderground v.1.15,2013-04-11 10:30:00,
2013-04-11 05:40:00,23.9,20.6,29.89,WSW,254,5.0,5.0,87,0.00,,,0.00,Wunderground v.1.15,2013-04-11 10:40:00,
2013-04-11 05:50:00,23.7,20.4,29.90,West,277,5.0,5.0,87,0.00,,,0.00,Wunderground v.1.15,2013-04-11 10:50:00,
2013-04-11 06:00:00,23.6,20.3,29.90,WNW,287,5.0,5.0,87,0.00,,,0.00,Wunderground v.1.15,2013-04-11 11:00:00,
2013-04-11 06:10:00,23.5,20.2,29.90,West,279,5.0,6.0,87,0.00,,,0.00,Wunderground v.1.15,2013-04-11 11:10:00,
2013-04-11 06:20:00,23.4,20.1,29.89,West,269,4.0,6.0,87,0.00,,,0.00,Wunderground v.1.15,2013-04-11 11:20:00,
2013-04-11 06:30:00,23.3,20.0,29.89,WNW,288,4.0,4.0,87,0.00,,,0.00,Wunderground v.1.15,2013-04-11 11:30:00,
2013-04-11 06:40:00,23.1,19.8,29.88,WNW,287,4.0,4.0,87,0.00,,,0.00,Wunderground v.1.15,2013-04-11 11:40:00,
2013-04-11 06:50:00,22.8,19.8,29.89,West,279,4.0,4.0,88,0.00,,,0.00,Wunderground v.1.15,2013-04-11 11:50:00,
2013-04-11 07:00:00,22.8,19.8,29.89,West,260,4.0,7.0,88,0.00,,,0.00,Wunderground v.1.15,2013-04-11 12:00:00,
2013-04-11 07:10:00,23.1,20.1,29.89,West,278,5.0,6.0,88,0.00,,,0.00,Wunderground v.1.15,2013-04-11 12:10:00,
2013-04-11 07:20:00,23.0,19.7,29.90,West,270,4.0,7.0,87,0.00,,,0.00,Wunderground v.1.15,2013-04-11 12:20:00,
2013-04-11 07:30:00,23.0,20.0,29.90,West,278,4.0,4.0,88,0.00,,,0.00,Wunderground v.1.15,2013-04-11 12:30:00,
2013-04-11 07:40:00,23.1,20.1,29.90,West,281,4.0,7.0,88,0.00,,,0.00,Wunderground v.1.15,2013-04-11 12:40:00,
2013-04-11 07:50:00,23.7,20.7,29.90,WNW,282,6.0,6.0,88,0.00,,,0.00,Wunderground v.1.15,2013-04-11 12:50:00,
2013-04-11 08:00:00,24.6,21.0,29.90,NW,305,7.0,10.0,86,0.00,,,0.00,Wunderground v.1.15,2013-04-11 13:00:00,
2013-04-11 08:10:00,25.0,21.1,29.89,WNW,302,6.0,6.0,85,0.00,,,0.00,Wunderground v.1.15,2013-04-11 13:10:00,
2013-04-11 08:20:00,25.5,21.6,29.89,WNW,298,7.0,7.0,85,0.00,,,0.00,Wunderground v.1.15,2013-04-11 13:20:00,
2013-04-11 08:30:00,25.9,21.7,29.89,West,271,7.0,8.0,84,0.00,,,0.00,Wunderground v.1.15,2013-04-11 13:30:00,
2013-04-11 08:40:00,26.3,22.1,29.89,West,278,7.0,8.0,84,0.00,,,0.00,Wunderground v.1.15,2013-04-11 13:40:00,
2013-04-11 08:50:00,26.8,22.0,29.89,WNW,298,7.0,7.0,82,0.00,,,0.00,Wunderground v.1.15,2013-04-11 13:50:00,
2013-04-11 09:00:00,27.1,22.3,29.89,WNW,285,8.0,8.0,82,0.00,,,0.00,Wunderground v.1.15,2013-04-11 14:00:00,
2013-04-11 09:10:00,27.3,22.5,29.88,WNW,290,9.0,9.0,82,0.00,,,0.00,Wunderground v.1.15,2013-04-11 14:10:00,
2013-04-11 09:20:00,27.6,22.5,29.88,West,278,8.0,8.0,81,0.00,,,0.00,Wunderground v.1.15,2013-04-11 14:20:00,
2013-04-11 09:30:00,28.0,22.9,29.87,West,281,8.0,8.0,81,0.00,,,0.00,Wunderground v.1.15,2013-04-11 14:30:00,
2013-04-11 09:40:00,28.6,23.2,29.87,WNW,285,8.0,8.0,80,0.00,,,0.00,Wunderground v.1.15,2013-04-11 14:40:00,
2013-04-11 09:50:00,28.9,23.2,29.87,WNW,290,8.0,8.0,79,0.00,,,0.00,Wunderground v.1.15,2013-04-11 14:50:00,
2013-04-11 10:00:00,29.5,23.5,29.88,West,271,9.0,9.0,78,0.00,,,0.00,Wunderground v.1.15,2013-04-11 15:00:00,
2013-04-11 10:20:00,30.2,23.9,29.87,WNW,297,10.0,10.0,77,0.00,,,0.00,Wunderground v.1.15,2013-04-11 15:20:00,
2013-04-11 10:30:00,30.3,24.0,29.86,NW,311,11.0,11.0,77,0.00,,,0.00,Wunderground v.1.15,2013-04-11 15:30:00,
2013-04-11 10:40:00,30.8,24.4,29.86,WNW,301,9.0,11.0,77,0.00,,,0.00,Wunderground v.1.15,2013-04-11 15:40:00,
2013-04-11 10:50:00,31.8,25.1,29.87,WNW,296,10.0,10.0,76,0.00,,,0.00,Wunderground v.1.15,2013-04-11 15:50:00,
2013-04-11 11:00:00,32.7,26.3,29.87,WNW,295,10.0,10.0,77,0.00,,,0.00,Wunderground v.1.15,2013-04-11 16:00:00,
2013-04-11 11:10:00,33.3,26.2,29.87,WNW,284,11.0,11.0,75,0.00,,,0.00,Wunderground v.1.15,2013-04-11 16:10:00,
2013-04-11 11:20:00,33.9,25.8,29.87,WNW,295,11.0,14.0,72,0.00,,,0.00,Wunderground v.1.15,2013-04-11 16:20:00,
2013-04-11 11:30:00,34.1,26.0,29.87,WNW,290,12.0,12.0,72,0.00,,,0.00,Wunderground v.1.15,2013-04-11 16:30:00,
2013-04-11 11:40:00,34.7,26.9,29.87,West,271,11.0,11.0,73,0.00,,,0.00,Wunderground v.1.15,2013-04-11 16:40:00,
2013-04-11 11:50:00,34.8,26.4,29.86,WNW,298,11.0,16.0,71,0.00,,,0.00,Wunderground v.1.15,2013-04-11 16:50:00,
2013-04-11 12:00:00,35.2,26.4,29.86,West,273,11.0,11.0,70,0.00,,,0.00,Wunderground v.1.15,2013-04-11 17:00:00,
2013-04-11 12:10:00,34.9,25.0,29.85,WNW,288,11.0,11.0,67,0.00,,,0.00,Wunderground v.1.15,2013-04-11 17:10:00,
2013-04-11 12:20:00,35.5,25.3,29.84,WNW,300,12.0,12.0,66,0.00,,,0.00,Wunderground v.1.15,2013-04-11 17:20:00,
2013-04-11 12:30:00,35.9,25.6,29.85,WNW,298,10.0,10.0,66,0.00,,,0.00,Wunderground v.1.15,2013-04-11 17:30:00,
2013-04-11 12:40:00,36.4,26.8,29.85,WNW,295,11.0,14.0,68,0.00,,,0.00,Wunderground v.1.15,2013-04-11 17:40:00,
2013-04-11 12:50:00,36.6,26.7,29.84,WNW,300,11.0,13.0,67,0.00,,,0.00,Wunderground v.1.15,2013-04-11 17:50:00,
2013-04-11 13:00:00,37.0,25.9,29.85,NW,319,11.0,13.0,64,0.00,,,0.00,Wunderground v.1.15,2013-04-11 18:00:00,
2013-04-11 13:10:00,37.2,27.2,29.85,NW,304,11.0,14.0,67,0.00,,,0.00,Wunderground v.1.15,2013-04-11 18:10:00,
2013-04-11 13:20:00,37.8,27.1,29.85,NW,309,12.0,12.0,65,0.00,,,0.00,Wunderground v.1.15,2013-04-11 18:20:00,
2013-04-11 13:30:00,38.2,29.6,29.85,WNW,296,12.0,13.0,71,0.00,,,0.00,Wunderground v.1.15,2013-04-11 18:30:00,
2013-04-11 13:40:00,37.7,27.0,29.84,WNW,299,13.0,13.0,65,0.00,,,0.00,Wunderground v.1.15,2013-04-11 18:40:00,
2013-04-11 13:50:00,37.0,26.3,29.84,NW,304,13.0,13.0,65,0.00,,,0.00,Wunderground v.1.15,2013-04-11 18:50:00,
2013-04-11 14:00:00,37.0,25.2,29.84,WNW,299,12.0,12.0,62,0.00,,,0.00,Wunderground v.1.15,2013-04-11 19:00:00,
2013-04-11 14:10:00,37.7,26.2,29.84,WNW,301,13.0,16.0,63,0.00,,,0.00,Wunderground v.1.15,2013-04-11 19:10:00,
2013-04-11 14:20:00,38.4,26.5,29.84,NW,312,12.0,14.0,62,0.00,,,0.00,Wunderground v.1.15,2013-04-11 19:20:00,
2013-04-11 14:30:00,38.4,26.9,29.84,NW,304,12.0,12.0,63,0.00,,,0.00,Wunderground v.1.15,2013-04-11 19:30:00,
2013-04-11 14:40:00,38.8,27.3,29.83,NW,325,11.0,11.0,63,0.00,,,0.00,Wunderground v.1.15,2013-04-11 19:40:00,
2013-04-11 14:50:00,38.9,27.4,29.83,NW,312,11.0,11.0,63,0.00,,,0.00,Wunderground v.1.15,2013-04-11 19:50:00,
2013-04-11 15:00:00,39.1,27.6,29.83,WNW,297,11.0,11.0,63,0.00,,,0.00,Wunderground v.1.15,2013-04-11 20:00:00,
2013-04-11 15:10:00,40.1,28.9,29.83,West,268,11.0,12.0,64,0.00,,,0.00,Wunderground v.1.15,2013-04-11 20:10:00,
2013-04-11 15:20:00,40.2,29.7,29.83,NW,307,11.0,16.0,66,0.00,,,0.00,Wunderground v.1.15,2013-04-11 20:20:00,
2013-04-11 15:30:00,40.2,29.0,29.83,NW,311,12.0,12.0,64,0.00,,,0.00,Wunderground v.1.15,2013-04-11 20:30:00,
2013-04-11 15:40:00,40.3,27.1,29.83,NW,304,11.0,11.0,59,0.00,,,0.00,Wunderground v.1.15,2013-04-11 20:40:00,
2013-04-11 15:50:00,39.9,27.9,29.83,NW,316,13.0,13.0,62,0.00,,,0.00,Wunderground v.1.15,2013-04-11 20:50:00,
2013-04-11 16:00:00,40.6,28.2,29.83,NW,318,10.0,13.0,61,0.00,,,0.00,Wunderground v.1.15,2013-04-11 21:00:00,
2013-04-11 16:10:00,39.9,27.9,29.82,North,356,11.0,13.0,62,0.00,,,0.00,Wunderground v.1.15,2013-04-11 21:10:00,
2013-04-11 16:20:00,40.5,28.5,29.82,WNW,295,11.0,14.0,62,0.00,,,0.00,Wunderground v.1.15,2013-04-11 21:20:00,
2013-04-11 16:30:00,40.5,27.3,29.82,NNW,345,12.0,12.0,59,0.00,,,0.00,Wunderground v.1.15,2013-04-11 21:30:00,
2013-04-11 16:40:00,40.3,28.7,29.82,NW,314,12.0,12.0,63,0.00,,,0.00,Wunderground v.1.15,2013-04-11 21:40:00,
2013-04-11 16:50:00,40.6,26.5,29.82,NNW,336,11.0,11.0,57,0.00,,,0.00,Wunderground v.1.15,2013-04-11 21:50:00,
2013-04-11 17:00:00,40.5,27.7,29.82,NW,308,11.0,11.0,60,0.00,,,0.00,Wunderground v.1.15,2013-04-11 22:00:00,
2013-04-11 17:10:00,40.3,27.9,29.81,NW,317,10.0,11.0,61,0.00,,,0.00,Wunderground v.1.15,2013-04-11 22:10:00,
2013-04-11 17:20:00,40.7,28.3,29.81,NW,308,9.0,9.0,61,0.00,,,0.00,Wunderground v.1.15,2013-04-11 22:20:00,
2013-04-11 17:30:00,40.6,27.8,29.82,NW,326,9.0,9.0,60,0.00,,,0.00,Wunderground v.1.15,2013-04-11 22:30:00,
2013-04-11 17:40:00,40.3,27.5,29.82,WNW,302,11.0,11.0,60,0.00,,,0.00,Wunderground v.1.15,2013-04-11 22:40:00,
2013-04-11 17:50:00,40.1,27.3,29.82,North,355,12.0,19.0,60,0.00,,,0.00,Wunderground v.1.15,2013-04-11 22:50:00,
2013-04-11 18:00:00,40.0,27.6,29.82,NW,319,12.0,12.0,61,0.00,,,0.00,Wunderground v.1.15,2013-04-11 23:00:00,
2013-04-11 18:10:00,39.9,27.5,29.82,NW,322,11.0,11.0,61,0.00,,,0.00,Wunderground v.1.15,2013-04-11 23:10:00,
2013-04-11 18:20:00,40.0,27.2,29.82,NW,304,11.0,11.0,60,0.00,,,0.00,Wunderground v.1.15,2013-04-11 23:20:00,
2013-04-11 18:30:00,39.9,27.1,29.83,NW,320,11.0,11.0,60,0.00,,,0.00,Wunderground v.1.15,2013-04-11 23:30:00,
2013-04-11 18:40:00,39.6,26.8,29.83,NW,314,10.0,15.0,60,0.00,,,0.00,Wunderground v.1.15,2013-04-11 23:40:00,
2013-04-11 18:50:00,39.3,27.4,29.83,North,356,10.0,11.0,62,0.00,,,0.00,Wunderground v.1.15,2013-04-11 23:50:00,
2013-04-11 19:00:00,38.9,26.6,29.83,NW,319,9.0,9.0,61,0.00,,,0.00,Wunderground v.1.15,2013-04-12 00:00:00,
2013-04-11 19:10:00,38.5,27.4,29.83,NNW,330,10.0,10.0,64,0.00,,,0.00,Wunderground v.1.15,2013-04-12 00:10:00,
2013-04-11 19:20:00,37.9,27.2,29.83,NW,315,7.0,7.0,65,0.00,,,0.00,Wunderground v.1.15,2013-04-12 00:20:00,
2013-04-11 19:30:00,37.7,27.4,29.84,NNW,338,7.0,8.0,66,0.00,,,0.00,Wunderground v.1.15,2013-04-12 00:30:00,
2013-04-11 19:40:00,36.9,27.0,29.84,NNW,346,6.0,6.0,67,0.00,,,0.00,Wunderground v.1.15,2013-04-12 00:40:00,
2013-04-11 19:50:00,36.3,27.4,29.84,NW,315,5.0,5.0,70,0.00,,,0.00,Wunderground v.1.15,2013-04-12 00:50:00,
2013-04-11 20:00:00,35.6,27.1,29.84,North,355,4.0,6.0,71,0.00,,,0.00,Wunderground v.1.15,2013-04-12 01:00:00,
2013-04-11 20:10:00,34.8,27.0,29.84,NW,307,4.0,4.0,73,0.00,,,0.00,Wunderground v.1.15,2013-04-12 01:10:00,
2013-04-11 20:20:00,34.1,27.0,29.85,NNW,344,3.0,3.0,75,0.00,,,0.00,Wunderground v.1.15,2013-04-12 01:20:00,
2013-04-11 20:30:00,34.1,27.0,29.85,NW,308,3.0,4.0,75,0.00,,,0.00,Wunderground v.1.15,2013-04-12 01:30:00,
2013-04-11 20:40:00,34.3,26.9,29.85,WNW,302,5.0,5.0,74,0.00,,,0.00,Wunderground v.1.15,2013-04-12 01:40:00,
2013-04-11 20:50:00,34.4,27.3,29.86,NW,309,4.0,4.0,75,0.00,,,0.00,Wunderground v.1.15,2013-04-12 01:50:00,
2013-04-11 21:00:00,34.5,27.4,29.86,NW,318,4.0,4.0,75,0.00,,,0.00,Wunderground v.1.15,2013-04-12 02:00:00,
2013-04-11 21:10:00,34.0,27.2,29.86,NNW,333,3.0,4.0,76,0.00,,,0.00,Wunderground v.1.15,2013-04-12 02:10:00,
2013-04-11 21:20:00,33.5,27.1,29.87,NW,305,3.0,4.0,77,0.00,,,0.00,Wunderground v.1.15,2013-04-12 02:20:00,
2013-04-11 21:30:00,33.5,27.1,29.87,NW,313,4.0,5.0,77,0.00,,,0.00,Wunderground v.1.15,2013-04-12 02:30:00,
2013-04-11 21:40:00,33.0,26.6,29.88,NW,304,4.0,4.0,77,0.00,,,0.00,Wunderground v.1.15,2013-04-12 02:40:00,
2013-04-11 21:50:00,32.4,26.3,29.88,NW,311,3.0,3.0,78,0.00,,,0.00,Wunderground v.1.15,2013-04-12 02:50:00,
2013-04-11 22:00:00,32.0,26.2,29.88,NW,311,3.0,4.0,79,0.00,,,0.00,Wunderground v.1.15,2013-04-12 03:00:00,
2013-04-11 22:10:00,31.6,25.8,29.88,WNW,300,3.0,3.0,79,0.00,,,0.00,Wunderground v.1.15,2013-04-12 03:10:00,
2013-04-11 22:20:00,31.2,25.7,29.89,WNW,302,3.0,3.0,80,0.00,,,0.00,Wunderground v.1.15,2013-04-12 03:20:00,
2013-04-11 22:30:00,30.9,25.8,29.89,WNW,296,3.0,3.0,81,0.00,,,0.00,Wunderground v.1.15,2013-04-12 03:30:00,
2013-04-11 22:40:00,30.7,25.6,29.89,WNW,297,3.0,4.0,81,0.00,,,0.00,Wunderground v.1.15,2013-04-12 03:40:00,
2013-04-11 22:50:00,30.7,25.3,29.90,WNW,301,4.0,4.0,80,0.00,,,0.00,Wunderground v.1.15,2013-04-12 03:50:00,
2013-04-11 23:00:00,30.4,25.3,29.90,WNW,295,4.0,4.0,81,0.00,,,0.00,Wunderground v.1.15,2013-04-12 04:00:00,
2013-04-11 23:10:00,29.2,24.4,29.90,WNW,295,3.0,3.0,82,0.00,,,0.00,Wunderground v.1.15,2013-04-12 04:10:00,
2013-04-11 23:20:00,28.6,24.4,29.90,WNW,289,3.0,3.0,84,0.00,,,0.00,Wunderground v.1.15,2013-04-12 04:20:00,
2013-04-11 23:30:00,27.8,24.2,29.91,WNW,295,2.0,3.0,86,0.00,,,0.00,Wunderground v.1.15,2013-04-12 04:30:00,
2013-04-11 23:40:00,27.7,23.8,29.91,West,273,2.0,2.0,85,0.00,,,0.00,Wunderground v.1.15,2013-04-12 04:40:00,
2013-04-11 23:50:00,27.2,23.6,29.91,West,276,1.0,1.0,86,0.00,,,0.00,Wunderground v.1.15,2013-04-12 04:50:00,